User: anonymous   Login
Location: Unspecified
(0.0000°N, 0.0000°E)
Time: 10:55:48
(UTC+00:00)
Language:

MTI - Orbit

View from above orbital plane
View from above orbital plane
View from above satellite
View from above satellite

Ground track
Ground track

The orbit data is extracted from the following two-line orbital elements,

1 26102U 00014A   17269.09125589  .00005889  00000-0  11478-3 0  9994
2 26102  97.5803  84.9406 0006472 266.8439 233.2822 15.47935946970127
Epoch (UTC): 26 September 2017 02:11:24
Eccentricity: 0.0006472
inclination: 97.5803°
perigee height: 418 km
apogee height: 427 km
right ascension of ascending node: 84.9406°
argument of perigee: 266.8439°
revolutions per day: 15.47935946
mean anomaly at epoch: 233.2822°
orbit number at epoch: 97012

The dashed part of the orbit path shows where the satellite is in the earth's shadow,  

DLR